EW4610 Weather Reports


time (UTC)temp
C
wind
direction
speed
KPH
gust
KPH
rain 1hr
cm
rain 24hr
cm
rain mn
cm
humidity
%
barometer
mb
20260505192022 13 0.0 0.0 0.00 0.00 0.00 60 1012.1
20260505191451 13 0.0 0.0 0.00 0.00 0.00 60 1011.9
20260505190920 13 0.0 0.0 0.00 0.00 0.00 60 1012.0
20260505190325 13 0.0 0.0 0.00 0.00 0.00 59 1012.0
20260505185824 13 0.0 0.0 0.00 0.00 0.00 59 1011.9
20260505185317 13 0.0 0.0 0.00 0.00 0.00 59 1012.0
20260505184816 13 0.0 0.0 0.00 0.00 0.00 58 1012.0
20260505184311 13 0.0 3.2 0.00 0.00 0.00 58 1011.8
20260505183810 13 0.0 0.0 0.00 0.00 0.00 58 1011.9
20260505183325 13 0.0 0.0 0.00 0.00 0.00 57 1011.9
20260505182819 13 0.0 0.0 0.00 0.00 0.00 57 1011.7
20260505182318 13 0.0 1.6 0.00 0.00 0.00 57 1011.6
20260505181818 13 0.0 3.2 0.00 0.00 0.00 57 1011.7
20260505181318 14 0.0 3.2 0.00 0.00 0.00 56 1011.8
20260505180818 14 0.0 0.0 0.00 0.00 0.00 56 1011.9
20260505180316 14 0.0 0.0 0.00 0.00 0.00 56 1011.9
20260505175745 14 0.0 1.6 0.00 0.00 0.00 55 1011.8
20260505175215 14 0.0 3.2 0.00 0.00 0.00 55 1011.8
20260505174644 14 0.0 1.6 0.00 0.00 0.00 55 1011.9
20260505174023 14 0.0 1.6 0.00 0.00 0.00 55 1011.7
20260505173438 14 0.0 1.6 0.00 0.00 0.00 55 1011.8
20260505172907 15 0.0 3.2 0.00 0.00 0.00 54 1011.8
20260505172321 15 0.0 0.0 0.00 0.00 0.00 54 1011.8
20260505171821 15 0.0 0.0 0.00 0.00 0.00 54 1011.8
20260505171305 15 0.0 0.0 0.00 0.00 0.00 54 1011.7
20260505170729 15 0.0 0.0 0.00 0.00 0.00 53 1011.6
20260505170158 15 0.0 3.2 0.00 0.00 0.00 53 1011.8
20260505165448 15 0.0 4.8 0.00 0.00 0.00 53 1011.8
20260505164915 15 1.6 3.2 0.00 0.00 0.00 53 1011.8
20260505164323 15 0.0 0.0 0.00 0.00 0.00 53 1011.8
20260505163821 15 0.0 3.2 0.00 0.00 0.00 53 1011.8
20260505163319 15 0.0 1.6 0.00 0.00 0.00 53 1011.7
20260505162818 15 0.0 0.0 0.00 0.00 0.00 52 1011.6
20260505162317 16 0.0 0.0 0.00 0.00 0.00 52 1011.6
20260505161816 16 0.0 3.2 0.00 0.00 0.00 52 1011.8
20260505161331 16 0.0 0.0 0.00 0.00 0.00 51 1011.8
20260505160833 16 1.6 3.2 0.00 0.00 0.00 52 1011.9
20260505160322 16 0.0 1.6 0.00 0.00 0.00 51 1011.8
20260505153326 16 0.0 3.2 0.00 0.00 0.00 52 1011.9
20260505152819 16 0.0 4.8 0.00 0.00 0.00 52 1011.9
20260505152248 16 3.2 4.8 0.00 0.00 0.00 52 1011.9
20260505151711 16 0.0 3.2 0.00 0.00 0.00 52 1011.9
20260505151130 16 0.0 0.0 0.00 0.00 0.00 52 1012.2
20260505150558 16 0.0 3.2 0.00 0.00 0.00 52 1011.9
20260505124817 17 3.2 8.0 0.00 0.00 0.00 51 1012.7
20260505124316 17 3.2 6.4 0.00 0.00 0.00 51 1012.8
20260505123816 17 3.2 3.2 0.00 0.00 0.00 51 1012.6
20260505123314 17 1.6 3.2 0.00 0.00 0.00 51 1012.8
20260505122811 17 0.0 1.6 0.00 0.00 0.00 51 1012.6
20260505122240 17 3.2 8.0 0.00 0.00 0.00 51 1012.6
20260505121710 17 3.2 11.3 0.00 0.00 0.00 50 1012.6
20260505121122 18 4.8 9.7 0.00 0.00 0.00 50 1012.7
20260505120622 18 1.6 4.8 0.00 0.00 0.00 52 1012.7
20260505115703 17 9.7 17.7 0.00 0.00 0.00 52 1012.6
20260505115130 17 1.6 9.7 0.00 0.00 0.00 52 1012.7
20260505114555 17 3.2 6.4 0.00 0.00 0.00 51 1012.6
20260505114024 17 3.2 4.8 0.00 0.00 0.00 51 1012.6
20260505113437 17 3.2 9.7 0.00 0.00 0.00 50 1012.9
20260505112921 18 4.8 12.9 0.00 0.00 0.00 50 1012.9
20260505112340 18 1.6 4.8 0.00 0.00 0.00 50 1012.9
20260505111711 18 3.2 6.4 0.00 0.00 0.00 51 1013.0
20260505111124 18 4.8 8.0 0.00 0.00 0.00 50 1012.9
20260505110553 19 1.6 4.8 0.00 0.00 0.00 50 1013.0
20260505101656 17 6.4 12.9 0.00 0.00 0.00 60 1013.1
20260505101126 17 3.2 6.4 0.00 0.00 0.00 61 1013.3
20260505100555 16 3.2 4.8 0.00 0.00 0.00 63 1013.3
20260505100052 15 3.2 6.4 0.00 0.00 0.00 64 1013.4
20260505095404 15 3.2 6.4 0.00 0.00 0.00 63 1013.3
20260505094822 16 3.2 4.8 0.00 0.00 0.00 63 1013.5
20260505094251 16 6.4 9.7 0.00 0.00 0.00 65 1013.4
20260505093447 15 1.6 3.2 0.00 0.00 0.00 68 1013.3
20260505092913 15 0.0 1.6 0.00 0.00 0.00 68 1013.4
20260505092247 14 4.8 9.7 0.00 0.00 0.00 68 1013.3
20260505091657 15 3.2 6.4 0.00 0.00 0.00 68 1013.4
20260505091126 15 1.6 3.2 0.00 0.00 0.00 70 1013.4
20260505090556 14 3.2 6.4 0.00 0.00 0.00 71 1013.5
20260505090025 14 1.6 8.0 0.00 0.00 0.00 72 1013.6
20260505085439 13 3.2 6.4 0.00 0.00 0.00 73 1013.6
20260505084908 13 3.2 4.8 0.00 0.00 0.00 75 1013.7
20260505084322 13 3.2 4.8 0.00 0.00 0.00 75 1013.7
20260505083821 12 3.2 3.2 0.00 0.00 0.00 75 1013.6
20260505083320 12 0.0 3.2 0.00 0.00 0.00 75 1013.4
20260505082820 12 3.2 4.8 0.00 0.00 0.00 75 1013.6
20260505082314 12 1.6 6.4 0.00 0.00 0.00 76 1013.9
20260505081812 12 1.6 3.2 0.00 0.00 0.00 76 1013.8
20260505081311 12 4.8 8.0 0.00 0.00 0.00 77 1013.7
20260505080841 12 4.8 6.4 0.00 0.00 0.00 78 1013.8
20260505080320 12 1.6 3.2 0.00 0.00 0.00 78 1013.7
20260505075818 12 0.0 1.6 0.00 0.00 0.00 78 1013.5
20260505075317 12 1.6 4.8 0.00 0.00 0.00 79 1013.7
20260505074811 12 4.8 6.4 0.00 0.00 0.00 79 1013.4
20260505074311 12 4.8 8.0 0.00 0.00 0.00 79 1013.4
20260505073810 12 3.2 6.4 0.00 0.00 0.00 80 1013.4
20260505073325 12 4.8 9.7 0.00 0.00 0.00 79 1013.5
20260505072819 12 1.6 3.2 0.00 0.00 0.00 80 1013.3
20260505072317 12 1.6 4.8 0.00 0.00 0.00 81 1013.4
20260505071827 12 1.6 3.2 0.00 0.00 0.00 82 1013.5
20260505071320 12 1.6 3.2 0.00 0.00 0.00 82 1013.5
20260505070819 12 0.0 3.2 0.00 0.00 0.00 83 1013.6
20260505070319 12 3.2 6.4 0.00 0.00 0.00 83 1013.7
20260505065813 12 1.6 4.8 0.00 0.00 0.00 84 1013.6
20260505065326 12 3.2 6.4 0.00 0.00 0.00 85 1013.9
20260505064818 12 0.0 1.6 0.00 0.00 0.00 85 1013.7
20260505064318 11 3.2 4.8 0.00 0.00 0.00 86 1013.9
20260505063817 11 0.0 3.2 0.00 0.00 0.00 86 1013.7
20260505063315 11 0.0 1.6 0.00 0.00 0.00 87 1013.8
20260505062832 11 0.0 3.2 0.00 0.00 0.00 88 1013.6
20260505062318 11 0.0 3.2 0.00 0.00 0.00 88 1013.9
20260505061831 11 3.2 4.8 0.00 0.00 0.00 89 1013.7
20260505061320 11 1.6 4.8 0.00 0.00 0.00 89 1013.8
20260505060819 11 0.0 3.2 0.00 0.00 0.00 90 1013.7
20260505060319 11 0.0 0.0 0.00 0.00 0.00 90 1013.7
20260505055819 11 0.0 1.6 0.00 0.00 0.00 90 1013.7
20260505055318 11 0.0 0.0 0.00 0.00 0.00 90 1013.6
20260505054817 11 1.6 3.2 0.00 0.00 0.00 90 1013.6
20260505054316 11 0.0 0.0 0.00 0.00 0.00 90 1013.9
20260505053816 11 1.6 4.8 0.00 0.00 0.00 91 1013.8
20260505053310 11 0.0 3.2 0.00 0.00 0.00 91 1013.7
20260505052825 11 0.0 3.2 0.00 0.00 0.00 91 1013.5
20260505052319 11 0.0 0.0 0.00 0.00 0.00 91 1013.6
20260505051819 11 3.2 6.4 0.00 0.00 0.00 91 1013.7
20260505051318 11 0.0 1.6 0.00 0.00 0.00 91 1013.8
20260505050818 11 0.0 1.6 0.00 0.00 0.00 92 1013.9
20260505050317 11 0.0 3.2 0.00 0.00 0.00 92 1013.8
20260505041658 11 0.0 3.2 0.00 0.00 0.00 92 1014.0
20260505041127 11 0.0 0.0 0.00 0.00 0.00 92 1014.0
20260505040557 11 1.6 4.8 0.00 0.00 0.00 92 1013.7
20260505040021 11 0.0 1.6 0.00 0.00 0.00 92 1013.8
20260505035435 11 0.0 0.0 0.00 0.00 0.00 92 1013.8
20260505034905 11 0.0 1.6 0.00 0.00 0.00 92 1013.9
20260505034320 11 0.0 0.0 0.00 0.00 0.00 91 1013.9
20260505033819 11 0.0 0.0 0.00 0.00 0.00 91 1014.0
20260505033319 11 0.0 0.0 0.00 0.00 0.00 91 1014.0
20260505032818 11 0.0 0.0 0.00 0.00 0.00 91 1013.8
20260505032317 11 0.0 3.2 0.00 0.00 0.00 91 1013.9
20260505031812 11 0.0 0.0 0.00 0.00 0.00 91 1013.8
20260505031312 11 0.0 3.2 0.00 0.00 0.00 91 1013.9
20260505030811 11 0.0 1.6 0.00 0.00 0.00 91 1014.1
20260505030311 11 3.2 4.8 0.00 0.00 0.00 91 1014.0
20260505025810 11 0.0 1.6 0.00 0.00 0.00 91 1014.1
20260505025310 11 0.0 0.0 0.00 0.00 0.00 90 1014.1
20260505024824 11 0.0 0.0 0.00 0.00 0.00 90 1014.0
20260505024239 11 0.0 0.0 0.00 0.00 0.00 90 1014.1
20260505023708 11 0.0 1.6 0.00 0.00 0.00 90 1014.2
20260505023122 11 0.0 3.2 0.00 0.00 0.00 90 1014.1
20260505022552 11 0.0 0.0 0.00 0.00 0.00 90 1014.0
20260505022021 11 0.0 3.2 0.00 0.00 0.00 90 1014.1
20260505021436 11 0.0 1.6 0.00 0.00 0.00 90 1014.1
20260505020906 11 0.0 1.6 0.00 0.00 0.00 90 1014.2
20260505020320 11 0.0 1.6 0.00 0.00 0.00 89 1014.2
20260505015819 11 0.0 1.6 0.00 0.00 0.00 89 1014.2
20260505015319 11 0.0 0.0 0.00 0.00 0.00 89 1014.2
20260505014819 11 1.6 4.8 0.00 0.00 0.00 89 1014.3
20260505014333 11 0.0 0.0 0.00 0.00 0.00 89 1014.1
20260505013811 11 3.2 6.4 0.00 0.00 0.00 89 1014.3
20260505013311 11 3.2 9.7 0.00 0.00 0.00 89 1014.5
20260505012810 11 0.0 1.6 0.00 0.00 0.00 89 1014.2
20260505012310 11 3.2 6.4 0.00 0.00 0.00 89 1014.4
20260505011809 11 0.0 1.6 0.00 0.00 0.00 89 1014.3
20260505011309 11 1.6 4.8 0.00 0.00 0.00 88 1014.6
20260505010824 11 0.0 0.0 0.00 0.00 0.00 88 1014.6
20260505010319 11 0.0 0.0 0.00 0.00 0.00 88 1014.5
20260505005817 11 0.0 1.6 0.00 0.00 0.00 87 1014.7
20260505005317 11 1.6 3.2 0.00 0.00 0.00 87 1014.6
20260505004817 11 0.0 3.2 0.00 0.00 0.00 87 1014.7
20260505004316 11 0.0 1.6 0.00 0.00 0.00 87 1014.6
20260505003815 11 3.2 6.4 0.00 0.00 0.00 87 1014.7
20260505003315 11 0.0 1.6 0.00 0.00 0.00 86 1014.7
20260505002830 12 1.6 4.8 0.00 0.00 0.00 86 1014.8
20260505002318 12 0.0 1.6 0.00 0.00 0.00 86 1014.9
20260505001818 12 0.0 3.2 0.00 0.00 0.00 86 1014.5
20260505001318 12 0.0 0.0 0.00 0.00 0.00 85 1014.7
20260505000817 12 0.0 4.8 0.00 0.00 0.00 85 1014.8
20260505000233 12 0.0 1.6 0.00 0.00 0.00 84 1014.9
20260504235701 12 0.0 1.6 0.00 0.00 0.00 83 1014.6
20260504235131 12 0.0 0.0 0.00 0.00 0.00 82 1014.8
20260504234545 12 6.4 9.7 0.00 0.00 0.00 82 1014.9
20260504234015 12 3.2 9.7 0.00 0.00 0.00 82 1014.8
20260504233444 12 1.6 4.8 0.00 0.00 0.00 82 1014.8
20260504232858 12 1.6 3.2 0.00 0.00 0.00 82 1014.8
20260504232328 12 0.0 0.0 0.00 0.00 0.00 82 1014.9
20260504231821 12 1.6 3.2 0.00 0.00 0.00 82 1014.9
20260504231321 12 3.2 3.2 0.00 0.00 0.00 82 1014.9
20260504230820 12 4.8 6.4 0.00 0.00 0.00 82 1015.1
20260504230314 12 0.0 3.2 0.00 0.00 0.00 82 1014.9
20260504225814 12 4.8 6.4 0.00 0.00 0.00 82 1015.1
20260504225313 12 0.0 3.2 0.00 0.00 0.00 82 1015.3
20260504224827 12 3.2 4.8 0.00 0.00 0.00 82 1015.0
20260504224231 12 0.0 3.2 0.00 0.00 0.00 82 1015.1
20260504223701 12 0.0 3.2 0.00 0.00 0.00 82 1015.0
20260504223131 12 3.2 4.8 0.00 0.00 0.00 82 1014.9
20260504222545 12 1.6 3.2 0.00 0.00 0.00 82 1015.1
20260504222015 12 3.2 8.0 0.00 0.00 0.00 83 1014.9
20260504221438 13 6.4 8.0 0.00 0.00 0.00 84 1015.0
20260504220908 13 3.2 12.9 0.00 0.00 0.00 85 1015.0
20260504220323 13 3.2 6.4 0.00 0.00 0.00 85 1015.1
20260504215822 13 0.0 1.6 0.00 0.00 0.00 86 1015.0
20260504215326 13 3.2 4.8 0.00 0.00 0.00 86 1015.2
20260504214820 13 0.0 0.0 0.00 0.00 0.00 86 1015.1
20260504214235 13 0.0 0.0 0.00 0.00 0.00 85 1015.3
20260504213519 13 0.0 0.0 0.00 0.00 0.00 85 1015.1
20260504212949 13 0.0 0.0 0.00 0.00 0.00 85 1015.2
20260504212419 13 0.0 3.2 0.00 0.00 0.00 85 1015.2
20260504211826 13 0.0 3.2 0.00 0.00 0.00 84 1015.0
20260504211320 13 3.2 6.4 0.00 0.00 0.00 84 1015.1
20260504210829 13 0.0 1.6 0.00 0.00 0.00 84 1015.0
20260504210309 13 0.0 1.6 0.00 0.00 0.00 83 1015.0
20260504205808 13 0.0 0.0 0.00 0.00 0.00 82 1015.2
20260504205323 13 0.0 3.2 0.00 0.00 0.00 82 1015.1
20260504204736 13 0.0 3.2 0.00 0.00 0.00 81 1015.1
20260504204145 13 0.0 1.6 0.00 0.00 0.00 80 1015.1
20260504203529 13 0.0 1.6 0.00 0.00 0.00 80 1015.2
20260504202859 13 0.0 0.0 0.00 0.00 0.00 80 1015.2
20260504202328 13 0.0 4.8 0.00 0.00 0.00 80 1015.2
20260504201821 13 0.0 0.0 0.00 0.00 0.00 80 1015.1
20260504201321 13 0.0 1.6 0.00 0.00 0.00 80 1015.2
20260504200820 13 1.6 6.4 0.00 0.00 0.00 79 1015.0
20260504200316 13 0.0 3.2 0.00 0.00 0.00 79 1015.1
20260504195813 13 3.2 6.4 0.00 0.00 0.00 79 1015.1
20260504195312 13 0.0 1.6 0.00 0.00 0.00 79 1015.0
20260504194810 13 0.0 3.2 0.00 0.00 0.00 79 1015.0
20260504194310 13 0.0 1.6 0.00 0.00 0.00 79 1014.8
20260504193754 13 0.0 3.2 0.00 0.00 0.00 79 1014.9
20260504193223 13 0.0 3.2 0.00 0.00 0.00 79 1014.7
20260504192647 13 0.0 1.6 0.00 0.00 0.00 79 1014.7